Santa Monica, CA

1:54 AM PDT on June 25, 2018 (GMT -0700)
Santa Monica Municipal

Weather History for KSMO - October, 2017

Change the Weather History Date:

Wednesday, October 11, 2017

  Actual Average Record
Temperature  
Mean Temperature 64 °F -  
Max Temperature 70 °F 77 °F 96 °F (2015)
Min Temperature 60 °F 59 °F 48 °F (1936)
Growing Degree Days 14 (Base 50)    
Moisture  
Dew Point 60 °F    
Average Humidity 88    
Maximum Humidity 100    
Minimum Humidity 70    
Precipitation  
Precipitation 0.00 in - - ()
Sea Level Pressure  
Sea Level Pressure 29.88 in    
Wind  
Wind Speed 3 mph (WNW)    
Max Wind Speed 10 mph    
Max Gust Speed -    
Visibility 8 miles    
Events      
Averages and records for this station are not official NWS values.
T = Trace of Precipitation, MM = Missing Value Source: NWS Daily Summary

Daily Weather History Graph

Daily Weather History Graph

Search for Another Location

Airport or City:

Astronomy

Oct. 11, 2017 Rise Set
Actual Time 6:56 AM PDT 6:24 PM PDT
Civil Twilight 6:30 AM PDT 6:49 PM PDT
Nautical Twilight 6:01 AM PDT 7:18 PM PDT
Astronomical Twilight 5:32 AM PDT 7:47 PM PDT
Moon 11:42 PM PDT (10/11) 1:06 PM PDT (10/11)
Length of Visible Light 12h 18m
Length of Day
11h 28m
Waning Gibbous, 58% of the Moon is Illuminated
Oct 11
Waning Gibbous
Oct 12
Last Quarter
Oct 19
New
Oct 27
First Quarter
Nov 3
Full

Hourly Weather History & Observations

Time (PDT) Temp. Dew Point Humidity Pressure Visibility Wind Dir Wind Speed Gust Speed Precip Events Conditions
12:51 AM 61.0 °F 60.1 °F 97% 29.88 in 7.0 mi NE 3.5 mph - N/A   Scattered Clouds
1:36 AM 61.0 °F 60.1 °F 97% 29.89 in 8.0 mi ENE 3.5 mph - N/A   Mostly Cloudy
1:51 AM 61.0 °F 60.1 °F 97% 29.88 in 8.0 mi NE 3.5 mph - N/A   Overcast
2:51 AM 62.1 °F 61.0 °F 96% 29.87 in 9.0 mi ENE 4.6 mph - N/A   Overcast
3:51 AM 62.1 °F 60.1 °F 93% 29.86 in 7.0 mi Calm Calm - N/A   Partly Cloudy
4:12 AM 61.0 °F 60.1 °F 97% 29.86 in 7.0 mi NE 3.5 mph - N/A   Mostly Cloudy
4:51 AM 61.0 °F 60.1 °F 97% 29.86 in 6.0 mi NE 3.5 mph - N/A   Overcast
5:41 AM 60.1 °F 59.0 °F 96% 29.86 in 5.0 mi NE 3.5 mph - N/A   Scattered Clouds
5:51 AM 60.1 °F 59.0 °F 96% 29.86 in 5.0 mi Calm Calm - N/A   Scattered Clouds
5:58 AM 60.1 °F 59.0 °F 96% 29.87 in 5.0 mi NE 3.5 mph - N/A   Mostly Cloudy
6:40 AM 61.0 °F 61.0 °F 100% 29.87 in 4.0 mi NE 3.5 mph - N/A   Overcast
6:51 AM 61.0 °F 61.0 °F 100% 29.87 in 4.0 mi NNE 3.5 mph - N/A   Overcast
7:05 AM 61.0 °F 60.1 °F 97% 29.88 in 2.5 mi NNE 3.5 mph - N/A   Mostly Cloudy
7:24 AM 62.1 °F 61.0 °F 96% 29.88 in 3.0 mi Calm Calm - N/A   Mostly Cloudy
7:51 AM 62.1 °F 61.0 °F 96% 29.89 in 4.0 mi Calm Calm - N/A   Mostly Cloudy
8:51 AM 64.0 °F 60.1 °F 87% 29.91 in 8.0 mi NW 3.5 mph - N/A   Mostly Cloudy
9:33 AM 64.9 °F 60.1 °F 84% 29.92 in 9.0 mi Calm Calm - N/A   Scattered Clouds
9:51 AM 66.0 °F 59.0 °F 78% 29.91 in 9.0 mi Calm Calm - N/A   Scattered Clouds
10:51 AM 68.0 °F 59.0 °F 73% 29.92 in 10.0 mi SSW 9.2 mph - N/A   Partly Cloudy
11:51 AM 68.0 °F 59.0 °F 73% 29.92 in 10.0 mi WSW 8.1 mph - N/A   Scattered Clouds
12:51 PM 68.0 °F 59.0 °F 73% 29.91 in 10.0 mi Variable 6.9 mph - N/A   Partly Cloudy
1:51 PM 68.0 °F 59.0 °F 73% 29.88 in 10.0 mi WSW 9.2 mph - N/A   Partly Cloudy
2:51 PM 69.1 °F 59.0 °F 70% 29.87 in 10.0 mi SW 10.4 mph - N/A   Clear
3:51 PM 68.0 °F 59.0 °F 73% 29.87 in 10.0 mi SW 8.1 mph - N/A   Clear
4:51 PM 66.9 °F 59.0 °F 76% 29.86 in 10.0 mi WSW 6.9 mph - N/A   Clear
5:51 PM 66.0 °F 60.1 °F 81% 29.86 in 10.0 mi WSW 8.1 mph - N/A   Clear
6:51 PM 64.9 °F 61.0 °F 87% 29.86 in 10.0 mi SW 6.9 mph - N/A   Scattered Clouds
7:04 PM 64.9 °F 61.0 °F 87% 29.87 in 10.0 mi West 4.6 mph - N/A   Mostly Cloudy
7:32 PM 64.9 °F 61.0 °F 87% 29.87 in 10.0 mi SW 3.5 mph - N/A   Partly Cloudy
7:51 PM 64.0 °F 60.1 °F 87% 29.87 in 10.0 mi SW 3.5 mph - N/A   Clear
8:51 PM 64.0 °F 60.1 °F 87% 29.88 in 10.0 mi SW 3.5 mph - N/A   Clear
9:51 PM 63.0 °F 59.0 °F 87% 29.89 in 10.0 mi Calm Calm - N/A   Clear
10:29 PM 62.1 °F 59.0 °F 90% 29.89 in 10.0 mi Calm Calm - N/A   Scattered Clouds
10:41 PM 62.1 °F 59.0 °F 90% 29.89 in 10.0 mi Calm Calm - N/A   Mostly Cloudy
10:51 PM 62.1 °F 59.0 °F 90% 29.90 in 10.0 mi Calm Calm - N/A   Overcast
11:34 PM 62.1 °F 57.9 °F 86% 29.90 in 10.0 mi Calm Calm - N/A   Partly Cloudy
11:51 PM 62.1 °F 57.9 °F 86% 29.90 in 10.0 mi Calm Calm - N/A   Mostly Cloudy